{"data":{"norad_id":35696,"intl_designator":"2009-042A","name":"ASIASAT 5","alt_names":[],"object_type":"PAYLOAD","status":"ACTIVE","operator":null,"country":"AC","launch_date":"2009-08-11","launch_site_code":"TYMSC","launch_vehicle":null,"mission":null,"orbit_class":"UNKNOWN","rcs_meters":15.8489,"size_class":null,"mass_kg":null,"dimensions":null,"purposes":["comms"],"wikipedia_slug":null,"has_3d_model":false,"image_url":null,"decayed_at":null,"tle_current":{"epoch":"2026-09-20T00:17:31.698816Z","epoch_age_seconds":60364,"freshness":"FRESH","line1":"1 35696U 09042A   26263.01217244 -.00000311  00000+0  00000+0 0  9998","line2":"2 35696   0.0094  63.4133 0001720 127.5604 272.8618  1.00270776 62674","mean_motion":1.00270776,"eccentricity":0.000172,"inclination_deg":0.0094,"raan_deg":63.4133,"arg_perigee_deg":127.5604,"mean_anomaly_deg":272.8618,"bstar":0,"rev_number":6267,"period_min":1436.1113551171,"perigee_km":35779.625440341,"apogee_km":35794.13020544,"semimajor_km":42165.01482289,"source":"CELESTRAK","updated_at":"2026-09-20T09:00:35.158710Z"}}}